Regional Weather Roundup
Issued by NWS

Home | Current Version | Previous Version | Text Only | Print | Product List | Glossary On
Versions: 1 2 3 4 5 6 7 8 9 10 11 12 13 14 15 16 17 18 19 20 21 22 23 24 25 26 27 28 29 30 31 32 33 34 35 36 37 38 39 40 41 42 43 44 45 46 47 48 49 50
000
ASUS43 KIND 081909
RWRIN

WEATHER ROUNDUP FOR INDIANA
NATIONAL WEATHER SERVICE INDIANAPOLIS IN
200 PM EST THU DEC 08 2016

NOTE: "FAIR" INDICATES FEW OR NO CLOUDS BELOW 12,000 FEET WITH NO
SIGNIFICANT WEATHER AND/OR OBSTRUCTIONS TO VISIBILITY.

* - STATION DOES NOT REPORT WEATHER SUCH AS PRECIPITATION OR FOG.

+ - STATION NOT QUALITY CONTROLLED BY THE NATIONAL WEATHER SERVICE.
    USE DATA WITH CAUTION...ESPECIALLY DEWPOINT AND RELATIVE
    HUMIDITY OBSERVATIONS.

INZ001>003-010>013-019-020-082000-
NORTHWEST INDIANA

CITY           SKY/WX    TMP DP  RH WIND       PRES   REMARKS
GARY /AIRPORT/ PTSUNNY   21  12  68 W23G39    30.30S WCI   5
KNOX *+        CLOUDY    21  -4  33 W23       30.28R WCI   5
LA PORTE +     FLURRIES  21  13  71 W17G25    30.26R WCI   6
MICHIGAN CITY+ CLOUDY    23  16  74 W10G20    30.27R WCI  12
MONTICELLO +   FLURRIES  21   9  60 W18G29    30.31S WCI   6
RENSSELAER +   FLURRIES  21  16  79 W20G26    30.32S WCI   6
VALPARAISO     CLOUDY    21  12  68 W17       30.28R WCI   7

$$

LMZ046-743>745-082000-
SOUTHERN LAKE MICHIGAN

STATION/POSITION TIME  TEMP    WIND        PRES    WAVE
                       AIR SEA DIR/SP/G            HT
                 (UTC) (F)     (DEG/KT/KT) (MB)    (FT)

$$

INZ004-005-014>016-021>024-082000-
NORTH CENTRAL INDIANA

CITY           SKY/WX    TMP DP  RH WIND       PRES   REMARKS
ELKHART        LGT SNOW  21  16  79 W17       30.23R WCI   7
GOSHEN         FLURRIES  21  11  65 W18       30.23R WCI   6
LOGANSPORT +   FLURRIES  21  14  73 W20G25    30.31R WCI   6
PERU/GRISSOM   FLURRIES  21  13  69 W22       30.27R WCI   5
ROCHESTER +    FLURRIES  23  16  74 W18G28    30.28R WCI   9
SOUTH BEND     LGT SNOW  19  14  81 W17G24    30.24R WCI   4
WARSAW +       FLURRIES  21  12  68 W18G24    30.24S WCI   6

$$

INZ006>009-017-018-025>027-082000-
NORTHEAST INDIANA

CITY           SKY/WX    TMP DP  RH WIND       PRES   REMARKS
ANGOLA *+      CLOUDY    21  16  79 W10       30.17R WCI  10
AUBURN +       FLURRIES  23  14  68 W16G22    30.22R WCI  10
FORT WAYNE     FLURRIES  23  14  68 W20G28    30.23R WCI   8
HUNTINGTON +   FLURRIES  22  12  64 W18G29    30.25R WCI   8
KENDALLVILLE + FLURRIES  21  13  71 W18G29    30.20R WCI   6

$$

INZ028-029-035-036-043>045-051>053-082000-
WEST CENTRAL INDIANA

CITY           SKY/WX    TMP DP  RH WIND       PRES   REMARKS
CRAWFORDSVL +  CLOUDY    21  14  73 W18G25    30.33S WCI   6
GREENCASTLE +  CLOUDY    23  18  80 W13G18    30.35S WCI  11
LAFAYETTE      CLOUDY    22  13  68 W22G30    30.33R WCI   6
TERRE HAUTE    CLOUDY    24  14  65 W12       30.40S WCI  13

$$

INZ030>032-037>040-046>048-054>057-064-065-082000-
CENTRAL INDIANA

CITY           SKY/WX    TMP DP  RH WIND       PRES   REMARKS
CP ATTERBURY + CLOUDY    28  16  59 W12G20    30.35S WCI  18
COLUMBUS       PTSUNNY   27  18  69 W12G18    30.35R WCI  16
FISHERS *+     CLOUDY    21  16  79 W20       30.32S WCI   6
FRANKFORT +    CLOUDY    26  17  68 W22       30.32R WCI  11
GREENWOOD *+   CLOUDY    23  16  72 W17G24    30.34S WCI  10
INDIANAPOLIS   FLURRIES  23  13  65 W22       30.33S WCI   8
-EAGLE CREEK   FLURRIES  24  13  62 W16G22    30.32S WCI  11
KOKOMO +       FLURRIES  22  14  71 W26G36    30.29R WCI   5
MARION +       CLOUDY    23  15  73 W28       30.28R WCI   5
MT COMFORT *+  CLOUDY    23  14  68 W20G26    30.31S WCI   8
SHELBYVILLE    CLOUDY    24  14  65 W16G24    30.32S WCI  11
ZIONSVILLE +   CLOUDY    22  14  69 W16G26    30.31S WCI   9

$$

INZ033-034-041-042-049-050-058-059-082000-
EAST CENTRAL INDIANA

CITY           SKY/WX    TMP DP  RH WIND       PRES   REMARKS
MUNCIE         CLOUDY    25  13  60 W18G25    30.27R WCI  11

$$

INZ060-061-067>069-081>083-085>088-082000-
SOUTHWEST INDIANA

CITY           SKY/WX    TMP DP  RH WIND       PRES   REMARKS
EVANSVILLE     SUNNY     33  16  49 NW9       30.43F WCI  25
HUNTINGBURG *+ SUNNY     32  18  56 W15       30.40S WCI  22
WASHINGTON +   PTSUNNY   27  18  68 W10G22    30.41S WCI  18

$$

INZ062-063-066-070>080-084-089>092-082000-
SOUTH CENTRAL AND SOUTHEAST INDIANA

CITY           SKY/WX    TMP DP  RH WIND       PRES   REMARKS
BLOOMINGTON    CLOUDY    25  14  63 W15G22    30.35S WCI  13
MADISON *+     MOSUNNY   32  16  51 W15G21    30.33S WCI  22
NORTH VERNON + PTSUNNY   30  21  69 W16       30.32F WCI  19
SEYMOUR +      PTSUNNY   34  18  51 W17G26    30.34F WCI  23

$$





USA.gov is the U.S. government's official web portal to all federal, state and local government web resources and services.